User: anonymous   Login
Location: Harbor Island
(32.3990°N, 80.4435°W)
Time: 22:07:42
(UTC-05:00)
Language:

Cosmos 1455 - Orbit

View from above orbital plane
View from above orbital plane
View from above satellite
View from above satellite

Ground track
Ground track

The orbit data is extracted from the following two-line orbital elements,

1 14032U 83037A   14353.21387291  .00007785  00000-0  43993-3 0  7109
2 14032 082.5195 264.6909 0018675 190.2046 329.0914 15.12809280723407
Epoch (UTC): 19 December 2014 05:07:58
Eccentricity: 0.0018675
inclination: 82.5195°
perigee height: 515 km
apogee height: 540 km
right ascension of ascending node: 264.6909°
argument of perigee: 190.2046°
revolutions per day: 15.12809280
mean anomaly at epoch: 329.0914°
orbit number at epoch: 72340

The dashed part of the orbit path shows where the satellite is in the earth's shadow,  

DLR